Saint Bonnet de Bellac- Haute Vienne - France
Donnes mto: samedi, 20/10/2012
Date Horaire Temp. E. Hum. E. P.atmo. Pluie Vent Direction Direction Ensoleilleme Solaire P. de rose Temp au vent Rafales
20/10/2012 00:00 14,7 C 93 % 1012,5 hPa 0,2 mm 0,0 km/h (0 Bft) S-SO 202 0 min 0 W/m 13,6 C 14,7 C 0,0 km/h (0 Bft)
20/10/2012 00:10 14,6 C 93 % 1012,7 hPa 0,1 mm 0,0 km/h (0 Bft) S-SO 202 0 min 0 W/m 13,5 C 14,6 C 0,0 km/h (0 Bft)
20/10/2012 00:20 14,7 C 93 % 1012,9 hPa 0,1 mm 0,0 km/h (0 Bft) S-SO 202 0 min 0 W/m 13,6 C 14,7 C 0,0 km/h (0 Bft)
20/10/2012 00:30 14,6 C 93 % 1012,6 hPa 0,1 mm 0,0 km/h (0 Bft) S-SO 202 0 min 0 W/m 13,5 C 14,6 C 0,0 km/h (0 Bft)
20/10/2012 00:40 14,6 C 93 % 1012,6 hPa 0,1 mm 0,0 km/h (0 Bft) S-SO 202 0 min 0 W/m 13,5 C 14,6 C 0,0 km/h (0 Bft)
20/10/2012 00:50 14,6 C 93 % 1012,9 hPa 0,0 mm 0,0 km/h (0 Bft) S-SO 202 0 min 0 W/m 13,5 C 14,6 C 0,0 km/h (0 Bft)
20/10/2012 01:00 14,6 C 93 % 1012,8 hPa 0,0 mm 0,0 km/h (0 Bft) NO 315 0 min 0 W/m 13,5 C 14,6 C 0,0 km/h (0 Bft)
20/10/2012 01:10 14,4 C 93 % 1012,7 hPa 0,0 mm 0,0 km/h (0 Bft) NO 315 0 min 0 W/m 13,3 C 14,4 C 0,0 km/h (0 Bft)
20/10/2012 01:20 14,3 C 93 % 1013,0 hPa 0,0 mm 0,0 km/h (0 Bft) NO 315 0 min 0 W/m 13,2 C 14,3 C 0,0 km/h (0 Bft)
20/10/2012 01:30 14,2 C 93 % 1013,0 hPa 0,0 mm 0,0 km/h (0 Bft) NO 315 0 min 0 W/m 13,1 C 14,2 C 0,0 km/h (0 Bft)
20/10/2012 01:40 14,1 C 93 % 1013,1 hPa 0,0 mm 0,0 km/h (0 Bft) NO 315 0 min 0 W/m 13,0 C 14,1 C 0,0 km/h (0 Bft)
20/10/2012 01:50 13,9 C 93 % 1012,9 hPa 0,0 mm 0,0 km/h (0 Bft) NO 315 0 min 0 W/m 12,8 C 13,9 C 0,0 km/h (0 Bft)
20/10/2012 02:00 13,9 C 93 % 1013,0 hPa 0,1 mm 0,0 km/h (0 Bft) NO 315 0 min 0 W/m 12,8 C 13,9 C 0,0 km/h (0 Bft)
20/10/2012 02:10 13,9 C 93 % 1012,9 hPa 0,1 mm 0,0 km/h (0 Bft) NO 315 0 min 0 W/m 12,8 C 13,9 C 0,0 km/h (0 Bft)
20/10/2012 02:20 13,9 C 93 % 1012,9 hPa 0,0 mm 0,0 km/h (0 Bft) NO 315 0 min 0 W/m 12,8 C 13,9 C 0,0 km/h (0 Bft)
20/10/2012 02:30 13,9 C 93 % 1013,0 hPa 0,0 mm 0,0 km/h (0 Bft) NO 315 0 min 0 W/m 12,8 C 13,9 C 0,0 km/h (0 Bft)
20/10/2012 02:40 13,8 C 93 % 1012,9 hPa 0,2 mm 2,5 km/h (1 Bft) N-NO 337 0 min 0 W/m 12,7 C 13,8 C 3,6 km/h (1 Bft)
20/10/2012 02:50 13,8 C 93 % 1013,1 hPa 0,0 mm 0,0 km/h (0 Bft) N-NO 337 0 min 0 W/m 12,7 C 13,8 C 0,0 km/h (0 Bft)
20/10/2012 03:02 13,8 C 93 % 1013,1 hPa 0,1 mm 0,0 km/h (0 Bft) N-NO 337 0 min 0 W/m 12,7 C 13,8 C 0,0 km/h (0 Bft)
20/10/2012 03:10 13,7 C 93 % 1013,0 hPa 0,0 mm 0,0 km/h (0 Bft) N-NO 337 0 min 0 W/m 12,6 C 13,7 C 0,0 km/h (0 Bft)
20/10/2012 03:20 13,6 C 93 % 1013,0 hPa 0,1 mm 0,0 km/h (0 Bft) N-NO 337 0 min 0 W/m 12,5 C 13,6 C 0,0 km/h (0 Bft)
20/10/2012 03:30 13,6 C 93 % 1013,0 hPa 0,0 mm 0,0 km/h (0 Bft) N-NO 337 0 min 0 W/m 12,5 C 13,6 C 0,0 km/h (0 Bft)
20/10/2012 03:40 13,6 C 93 % 1013,0 hPa 0,0 mm 0,0 km/h (0 Bft) N-NO 337 0 min 0 W/m 12,5 C 13,6 C 0,0 km/h (0 Bft)
20/10/2012 03:50 13,6 C 93 % 1013,0 hPa 0,0 mm 0,0 km/h (0 Bft) N-NO 337 0 min 0 W/m 12,5 C 13,6 C 0,0 km/h (0 Bft)
20/10/2012 04:00 13,6 C 93 % 1013,2 hPa 0,0 mm 0,0 km/h (0 Bft) N-NO 337 0 min 0 W/m 12,5 C 13,6 C 0,0 km/h (0 Bft)
20/10/2012 04:10 13,6 C 93 % 1013,2 hPa 0,1 mm 0,0 km/h (0 Bft) N-NO 337 0 min 0 W/m 12,5 C 13,6 C 0,0 km/h (0 Bft)
20/10/2012 04:20 13,6 C 93 % 1013,5 hPa 0,0 mm 0,0 km/h (0 Bft) N-NO 337 0 min 0 W/m 12,5 C 13,6 C 0,0 km/h (0 Bft)
20/10/2012 04:30 13,6 C 93 % 1013,2 hPa 0,1 mm 0,0 km/h (0 Bft) N-NO 337 0 min 0 W/m 12,5 C 13,6 C 0,0 km/h (0 Bft)
20/10/2012 04:40 13,6 C 93 % 1013,0 hPa 0,1 mm 0,0 km/h (0 Bft) N-NO 337 0 min 0 W/m 12,5 C 13,6 C 0,0 km/h (0 Bft)
20/10/2012 04:50 13,6 C 93 % 1013,1 hPa 0,1 mm 0,0 km/h (0 Bft) N-NO 337 0 min 0 W/m 12,5 C 13,6 C 0,0 km/h (0 Bft)
20/10/2012 05:00 13,5 C 93 % 1013,3 hPa 0,0 mm 0,0 km/h (0 Bft) N-NO 337 0 min 0 W/m 12,4 C 13,5 C 0,0 km/h (0 Bft)
20/10/2012 05:10 13,6 C 93 % 1013,1 hPa 0,0 mm 0,0 km/h (0 Bft) N-NO 337 0 min 0 W/m 12,5 C 13,6 C 0,0 km/h (0 Bft)
20/10/2012 05:20 13,6 C 93 % 1013,1 hPa 0,0 mm 0,0 km/h (0 Bft) N-NO 337 0 min 0 W/m 12,5 C 13,6 C 0,0 km/h (0 Bft)
20/10/2012 05:30 13,6 C 93 % 1013,2 hPa 0,0 mm 1,1 km/h (1 Bft) N-NO 337 0 min 0 W/m 12,5 C 13,6 C 3,2 km/h (1 Bft)
20/10/2012 05:40 13,5 C 93 % 1013,0 hPa 0,2 mm 0,4 km/h (0 Bft) N-NO 337 0 min 0 W/m 12,4 C 13,5 C 0,4 km/h (0 Bft)
20/10/2012 05:50 13,5 C 93 % 1013,1 hPa 0,1 mm 0,0 km/h (0 Bft) N-NO 337 0 min 0 W/m 12,4 C 13,5 C 0,0 km/h (0 Bft)
20/10/2012 06:00 13,4 C 93 % 1013,0 hPa 0,2 mm 0,4 km/h (0 Bft) N-NO 337 0 min 0 W/m 12,3 C 13,4 C 0,4 km/h (0 Bft)
20/10/2012 06:10 13,4 C 93 % 1012,9 hPa 0,1 mm 0,0 km/h (0 Bft) N-NO 337 0 min 0 W/m 12,3 C 13,4 C 0,0 km/h (0 Bft)
20/10/2012 06:20 13,4 C 93 % 1013,0 hPa 0,1 mm 0,0 km/h (0 Bft) N-NO 337 0 min 0 W/m 12,3 C 13,4 C 0,0 km/h (0 Bft)
20/10/2012 06:30 13,4 C 93 % 1013,2 hPa 0,3 mm 0,0 km/h (0 Bft) N-NO 337 0 min 0 W/m 12,3 C 13,4 C 0,0 km/h (0 Bft)
20/10/2012 06:40 13,4 C 93 % 1013,2 hPa 0,4 mm 3,6 km/h (1 Bft) N-NE 22 0 min 0 W/m 12,3 C 13,4 C 7,2 km/h (2 Bft)
20/10/2012 06:50 13,4 C 93 % 1013,0 hPa 0,3 mm 2,5 km/h (1 Bft) N-NE 22 0 min 0 W/m 12,3 C 13,4 C 3,2 km/h (1 Bft)
20/10/2012 07:00 13,4 C 93 % 1013,2 hPa 0,1 mm 0,0 km/h (0 Bft) N-NO 337 0 min 0 W/m 12,3 C 13,4 C 0,0 km/h (0 Bft)
20/10/2012 07:10 13,4 C 93 % 1013,0 hPa 0,1 mm 0,4 km/h (0 Bft) N-NE 22 0 min 0 W/m 12,3 C 13,4 C 0,4 km/h (0 Bft)
20/10/2012 07:20 13,3 C 93 % 1013,0 hPa 0,3 mm 0,4 km/h (0 Bft) N 360 0 min 0 W/m 12,2 C 13,3 C 0,4 km/h (0 Bft)
20/10/2012 07:30 13,3 C 93 % 1013,0 hPa 0,1 mm 2,9 km/h (1 Bft) N-NE 22 0 min 0 W/m 12,2 C 13,3 C 4,3 km/h (1 Bft)
20/10/2012 07:40 13,3 C 93 % 1013,0 hPa 0,1 mm 0,0 km/h (0 Bft) N 360 0 min 0 W/m 12,2 C 13,3 C 0,0 km/h (0 Bft)
20/10/2012 07:50 13,3 C 93 % 1013,1 hPa 0,1 mm 0,7 km/h (0 Bft) N 360 0 min 0 W/m 12,2 C 13,3 C 4,0 km/h (1 Bft)
20/10/2012 08:00 13,3 C 93 % 1013,2 hPa 0,0 mm 0,0 km/h (0 Bft) N 360 0 min 0 W/m 12,2 C 13,3 C 0,0 km/h (0 Bft)
20/10/2012 08:10 13,3 C 93 % 1013,3 hPa 0,1 mm 2,2 km/h (1 Bft) NO 315 0 min 0 W/m 12,2 C 13,3 C 6,1 km/h (2 Bft)
20/10/2012 08:20 13,2 C 93 % 1013,5 hPa 0,1 mm 4,3 km/h (1 Bft) NO 315 0 min 0 W/m 12,1 C 13,2 C 8,3 km/h (2 Bft)
20/10/2012 08:30 13,2 C 93 % 1013,9 hPa 0,1 mm 0,0 km/h (0 Bft) NO 315 0 min 0 W/m 12,1 C 13,2 C 3,6 km/h (1 Bft)
20/10/2012 08:40 13,1 C 93 % 1013,9 hPa 0,1 mm 0,4 km/h (0 Bft) NO 315 0 min 0 W/m 12,0 C 13,1 C 3,2 km/h (1 Bft)
20/10/2012 08:50 13,1 C 93 % 1014,0 hPa 0,2 mm 1,4 km/h (1 Bft) N 360 0 min 0 W/m 12,0 C 13,1 C 4,3 km/h (1 Bft)
20/10/2012 09:00 13,1 C 93 % 1014,4 hPa 0,1 mm 1,1 km/h (1 Bft) NO 315 0 min 0 W/m 12,0 C 13,1 C 3,6 km/h (1 Bft)
20/10/2012 09:10 13,0 C 94 % 1014,2 hPa 0,1 mm 4,0 km/h (1 Bft) NO 315 0 min 0 W/m 12,1 C 13,0 C 4,3 km/h (1 Bft)
20/10/2012 09:20 13,0 C 93 % 1014,2 hPa 0,0 mm 0,7 km/h (0 Bft) N-NE 22 0 min 0 W/m 11,9 C 13,0 C 3,6 km/h (1 Bft)
20/10/2012 09:30 12,9 C 93 % 1014,2 hPa 0,1 mm 1,8 km/h (1 Bft) SE 135 0 min 0 W/m 11,8 C 12,9 C 4,0 km/h (1 Bft)
20/10/2012 09:40 12,9 C 94 % 1014,3 hPa 0,0 mm 2,9 km/h (1 Bft) N-NO 337 0 min 0 W/m 12,0 C 12,9 C 11,9 km/h (2 Bft)
20/10/2012 09:50 12,9 C 94 % 1014,3 hPa 0,0 mm 1,4 km/h (1 Bft) N-NE 22 0 min 0 W/m 12,0 C 12,9 C 4,3 km/h (1 Bft)
20/10/2012 10:00 12,9 C 94 % 1014,3 hPa 0,0 mm 4,3 km/h (1 Bft) NE 45 0 min 0 W/m 12,0 C 12,9 C 10,4 km/h (2 Bft)
20/10/2012 10:10 12,9 C 94 % 1014,3 hPa 0,0 mm 0,4 km/h (0 Bft) E-NE 67 0 min 0 W/m 12,0 C 12,9 C 3,6 km/h (1 Bft)
20/10/2012 10:20 12,9 C 94 % 1014,5 hPa 0,0 mm 0,0 km/h (0 Bft) NE 45 0 min 0 W/m 12,0 C 12,9 C 0,0 km/h (0 Bft)
20/10/2012 10:30 12,9 C 94 % 1014,4 hPa 0,2 mm 0,0 km/h (0 Bft) NE 45 0 min 0 W/m 12,0 C 12,9 C 0,0 km/h (0 Bft)
20/10/2012 10:40 12,9 C 94 % 1014,4 hPa 0,2 mm 0,0 km/h (0 Bft) N-NE 22 0 min 0 W/m 12,0 C 12,9 C 0,0 km/h (0 Bft)
20/10/2012 10:50 13,0 C 94 % 1014,3 hPa 0,1 mm 5,4 km/h (2 Bft) N-NE 22 0 min 0 W/m 12,1 C 13,0 C 9,7 km/h (2 Bft)
20/10/2012 11:00 13,0 C 94 % 1014,4 hPa 0,1 mm 0,0 km/h (0 Bft) NE 45 0 min 0 W/m 12,1 C 13,0 C 0,0 km/h (0 Bft)
20/10/2012 11:10 13,0 C 94 % 1014,4 hPa 0,1 mm 1,8 km/h (1 Bft) NE 45 0 min 0 W/m 12,1 C 13,0 C 3,2 km/h (1 Bft)
20/10/2012 11:20 13,1 C 94 % 1014,4 hPa 0,1 mm 0,0 km/h (0 Bft) N-NE 22 0 min 0 W/m 12,2 C 13,1 C 0,0 km/h (0 Bft)
20/10/2012 11:30 13,1 C 94 % 1014,7 hPa 0,1 mm 0,0 km/h (0 Bft) N-NE 22 0 min 0 W/m 12,2 C 13,1 C 0,0 km/h (0 Bft)
20/10/2012 11:40 13,1 C 94 % 1014,6 hPa 0,3 mm 1,8 km/h (1 Bft) N 360 0 min 0 W/m 12,2 C 13,1 C 5,8 km/h (2 Bft)
20/10/2012 11:50 13,1 C 94 % 1014,6 hPa 0,6 mm 0,0 km/h (0 Bft) N 360 0 min 0 W/m 12,2 C 13,1 C 0,0 km/h (0 Bft)
20/10/2012 12:00 13,0 C 94 % 1014,6 hPa 0,3 mm 0,0 km/h (0 Bft) NE 45 0 min 0 W/m 12,1 C 13,0 C 0,0 km/h (0 Bft)
20/10/2012 12:10 13,0 C 94 % 1014,4 hPa 0,2 mm 1,4 km/h (1 Bft) NE 45 0 min 0 W/m 12,1 C 13,0 C 4,3 km/h (1 Bft)
20/10/2012 12:20 13,1 C 94 % 1014,6 hPa 0,2 mm 0,4 km/h (0 Bft) N-NE 22 0 min 0 W/m 12,2 C 13,1 C 0,4 km/h (0 Bft)
20/10/2012 12:30 13,1 C 94 % 1014,7 hPa 0,1 mm 0,4 km/h (0 Bft) N-NE 22 0 min 0 W/m 12,2 C 13,1 C 3,2 km/h (1 Bft)
20/10/2012 12:40 13,1 C 94 % 1014,6 hPa 0,2 mm 0,4 km/h (0 Bft) N-NE 22 0 min 0 W/m 12,2 C 13,1 C 2,9 km/h (1 Bft)
20/10/2012 12:50 13,1 C 94 % 1014,6 hPa 0,1 mm 0,7 km/h (0 Bft) N 360 0 min 0 W/m 12,2 C 13,1 C 3,6 km/h (1 Bft)
20/10/2012 13:00 13,1 C 94 % 1014,3 hPa 0,1 mm 2,2 km/h (1 Bft) N-NE 22 0 min 0 W/m 12,2 C 13,1 C 4,3 km/h (1 Bft)
20/10/2012 13:10 13,1 C 94 % 1014,6 hPa 0,0 mm 0,0 km/h (0 Bft) N-NE 22 0 min 0 W/m 12,2 C 13,1 C 0,0 km/h (0 Bft)
20/10/2012 13:20 13,1 C 94 % 1014,1 hPa 0,0 mm 2,5 km/h (1 Bft) N-NE 22 0 min 0 W/m 12,2 C 13,1 C 4,0 km/h (1 Bft)
20/10/2012 13:30 13,1 C 94 % 1014,1 hPa 0,0 mm 0,0 km/h (0 Bft) N-NE 22 0 min 0 W/m 12,2 C 13,1 C 0,0 km/h (0 Bft)
20/10/2012 13:40 13,2 C 94 % 1014,1 hPa 0,0 mm 1,1 km/h (1 Bft) N-NE 22 0 min 0 W/m 12,3 C 13,2 C 3,2 km/h (1 Bft)
20/10/2012 13:50 13,2 C 94 % 1013,9 hPa 0,1 mm 1,8 km/h (1 Bft) N 360 0 min 0 W/m 12,3 C 13,2 C 3,6 km/h (1 Bft)
20/10/2012 14:00 13,2 C 94 % 1013,8 hPa 0,0 mm 0,0 km/h (0 Bft) NE 45 0 min 0 W/m 12,3 C 13,2 C 0,0 km/h (0 Bft)
20/10/2012 14:10 13,2 C 94 % 1013,7 hPa 0,1 mm 0,0 km/h (0 Bft) N 360 0 min 0 W/m 12,3 C 13,2 C 0,0 km/h (0 Bft)
20/10/2012 14:20 13,3 C 94 % 1013,5 hPa 0,2 mm 1,4 km/h (1 Bft) N 360 0 min 0 W/m 12,4 C 13,3 C 3,6 km/h (1 Bft)
20/10/2012 14:30 13,3 C 94 % 1013,3 hPa 0,2 mm 0,0 km/h (0 Bft) N 360 0 min 0 W/m 12,4 C 13,3 C 3,6 km/h (1 Bft)
20/10/2012 14:40 13,3 C 94 % 1013,2 hPa 0,0 mm 2,2 km/h (1 Bft) N 360 0 min 0 W/m 12,4 C 13,3 C 4,3 km/h (1 Bft)
20/10/2012 14:50 13,3 C 94 % 1013,2 hPa 0,0 mm 0,0 km/h (0 Bft) N 360 0 min 0 W/m 12,4 C 13,3 C 0,0 km/h (0 Bft)
20/10/2012 15:00 13,3 C 94 % 1013,1 hPa 0,0 mm 2,9 km/h (1 Bft) N 360 0 min 0 W/m 12,4 C 13,3 C 4,3 km/h (1 Bft)
20/10/2012 15:10 13,4 C 94 % 1013,1 hPa 0,1 mm 0,0 km/h (0 Bft) N 360 0 min 0 W/m 12,5 C 13,4 C 0,0 km/h (0 Bft)
20/10/2012 15:20 13,4 C 94 % 1013,1 hPa 0,0 mm 0,0 km/h (0 Bft) N-NO 337 0 min 0 W/m 12,5 C 13,4 C 0,0 km/h (0 Bft)
20/10/2012 15:30 13,5 C 94 % 1013,0 hPa 0,0 mm 0,7 km/h (0 Bft) N 360 0 min 0 W/m 12,6 C 13,5 C 4,0 km/h (1 Bft)
20/10/2012 15:40 13,5 C 94 % 1012,9 hPa 0,0 mm 0,4 km/h (0 Bft) N 360 0 min 0 W/m 12,6 C 13,5 C 4,0 km/h (1 Bft)
20/10/2012 15:50 13,6 C 94 % 1012,8 hPa 0,1 mm 0,0 km/h (0 Bft) N-NE 22 0 min 0 W/m 12,7 C 13,6 C 4,0 km/h (1 Bft)
20/10/2012 16:00 13,6 C 94 % 1012,9 hPa 0,0 mm 1,4 km/h (1 Bft) NE 45 0 min 0 W/m 12,7 C 13,6 C 1,4 km/h (1 Bft)
20/10/2012 16:10 13,8 C 94 % 1012,8 hPa 0,0 mm 2,5 km/h (1 Bft) NE 45 0 min 0 W/m 12,9 C 13,8 C 4,0 km/h (1 Bft)
20/10/2012 16:20 13,8 C 94 % 1012,8 hPa 0,0 mm 0,7 km/h (0 Bft) N-NE 22 0 min 0 W/m 12,9 C 13,8 C 3,6 km/h (1 Bft)
20/10/2012 16:30 13,9 C 94 % 1012,5 hPa 0,0 mm 3,2 km/h (1 Bft) N-NE 22 0 min 0 W/m 12,9 C 13,9 C 3,6 km/h (1 Bft)
20/10/2012 16:40 14,0 C 94 % 1012,4 hPa 0,0 mm 2,9 km/h (1 Bft) N-NE 22 0 min 0 W/m 13,0 C 14,0 C 3,6 km/h (1 Bft)
20/10/2012 16:50 14,1 C 94 % 1012,4 hPa 0,0 mm 3,2 km/h (1 Bft) N-NE 22 0 min 0 W/m 13,1 C 14,1 C 3,6 km/h (1 Bft)
20/10/2012 17:00 14,1 C 94 % 1012,3 hPa 0,0 mm 0,0 km/h (0 Bft) N-NE 22 0 min 0 W/m 13,1 C 14,1 C 0,0 km/h (0 Bft)
20/10/2012 17:10 14,1 C 94 % 1012,2 hPa 0,0 mm 2,5 km/h (1 Bft) NE 45 0 min 0 W/m 13,1 C 14,1 C 3,6 km/h (1 Bft)
_ Min-Heure 10:40 09:30 17:10 - 17:00 - - - - 09:30 10:40 17:00
Minimum _ 12,9 C 93 % 1012,2 hPa - 0,0 km/h (0 Bft) - - - - 11,8 C 12,9 C 0,0 km/h (0 Bft)
_ Max-Heure 00:20 17:10 12:30 11:50 10:50 - - 17:10 17:10 00:20 00:20 09:40
Maximum _ 14,7 C 94 % 1014,7 hPa 0,6 mm 5,4 km/h
N-NE (2 Bft)
- - 0 min 0 W/m 13,6 C 14,7 C 11,9 km/h
N-NO (2 Bft)
Moyenne _ 13,5 C 93 % 1013,4 hPa #8,0 mm 0,8 km/h (0 Bft) N-NO - #0 min. 0 W/m 12,5 C 13,5 C 1,9 km/h (1 Bft)
Saint Bonnet de Bellac- Haute Vienne - France